Location: Noordwijk
(52.2400°N, 4.4500°E)
Time: 14:42:58
(UTC+00:00)

Envisat - Visible Passes

Search period start: 27 November 2022 00:00
Search period end: 07 December 2022 00:00
Orbit: 763 x 765 km, 98.2° (Epoch: 26 November)

Date Brightness Start Highest point End Pass type
(mag) Time Alt. Az. Time Alt. Az. Time Alt. Az.
27 Nov 5.0 03:05:23 10° NE 03:08:38 24° ENE 03:08:38 24° ENE visible
27 Nov 3.0 04:44:00 10° N 04:48:48 54° WNW 04:48:48 54° WNW visible
27 Nov 4.8 06:25:05 10° NNW 06:26:56 12° NW 06:28:48 10° WNW visible
28 Nov 5.9 02:29:42 10° NE 02:30:59 13° ENE 02:30:59 13° ENE visible
28 Nov 3.3 04:06:54 10° NNE 04:11:10 61° NE 04:11:10 61° NE visible
28 Nov 4.2 05:46:48 10° N 05:50:30 21° NW 05:51:20 20° WNW visible
29 Nov 4.5 03:30:05 10° NNE 03:33:31 34° ENE 03:33:31 34° ENE visible
29 Nov 3.5 05:09:14 10° N 05:13:41 36° WNW 05:13:41 36° WNW visible
29 Nov 5.9 16:31:59 10° WSW 16:34:55 15° W 16:37:52 10° NW visible
30 Nov 5.4 02:53:42 10° NE 02:55:54 18° ENE 02:55:54 18° ENE visible
30 Nov 3.2 04:31:59 10° N 04:36:04 54° NNW 04:36:04 54° NNW visible
30 Nov 4.6 06:12:33 10° NNW 06:15:11 14° NW 06:16:14 13° WNW visible
01 Dec 3.9 03:54:58 10° NNE 03:58:26 42° NE 03:58:26 42° NE visible
01 Dec 4.0 05:34:38 10° N 05:38:37 24° WNW 05:38:37 24° WNW visible
02 Dec 5.0 03:18:16 10° NNE 03:20:50 24° NE 03:20:50 24° NE visible
02 Dec 3.5 04:57:11 10° N 05:01:00 39° NW 05:01:00 39° NW visible
02 Dec 5.7 16:19:15 10° SW 16:22:48 19° W 16:26:22 10° NW visible
03 Dec 5.8 02:42:07 10° NE 02:43:13 14° ENE 02:43:13 14° ENE visible
03 Dec 3.7 04:20:01 10° NNE 04:23:24 43° N 04:23:24 43° N visible
03 Dec 4.4 06:00:14 10° NNW 06:03:24 17° NW 06:03:34 17° NW visible
04 Dec 4.5 03:43:04 10° NNE 03:45:48 30° NE 03:45:48 30° NE visible
04 Dec 4.0 05:22:30 10° N 05:25:58 27° NW 05:25:58 27° NW visible
04 Dec 6.1 16:46:28 10° WSW 16:48:14 12° W 16:50:00 10° WNW visible
05 Dec 5.4 03:06:29 10° NE 03:08:12 18° NE 03:08:12 18° NE visible
05 Dec 3.8 04:45:09 10° N 04:48:23 36° NNW 04:48:23 36° NNW visible
05 Dec 4.7 06:26:22 10° NNW 06:28:02 12° NW 06:28:33 11° NW visible
05 Dec 5.6 16:06:42 10° SW 16:10:42 23° W 16:14:45 10° NW visible
06 Dec 4.2 04:08:02 10° NNE 04:10:48 33° NNE 04:10:48 33° NNE visible
06 Dec 4.3 05:47:59 10° N 05:50:58 20° NW 05:50:58 20° NW visible
